Autodesk Current Ratio 2006-2020 | ADSK

Current and historical current ratio for Autodesk (ADSK) from 2006 to 2020. Current ratio can be defined as a liquidity ratio that measures a company's ability to pay short-term obligations. Autodesk current ratio for the three months ending April 30, 2020 was 0.79.
Autodesk Current Ratio Historical Data
Date Current Assets Current Liabilities Current Ratio
2020-04-30 $2.02B $2.58B 0.79
2020-01-31 $2.66B $3.22B 0.83
2019-10-31 $1.71B $2.84B 0.60
2019-07-31 $1.52B $2.71B 0.56
2019-04-30 $1.42B $2.22B 0.64
2019-01-31 $1.62B $2.30B 0.70
2018-10-31 $1.59B $1.99B 0.80
2018-07-31 $1.60B $1.92B 0.84
2018-04-30 $1.70B $1.85B 0.92
2018-01-31 $1.88B $2.12B 0.88
2017-10-31 $1.87B $1.75B 1.07
2017-07-31 $2.08B $1.70B 1.22
2017-04-30 $2.14B $2.05B 1.04
2017-01-31 $2.46B $2.19B 1.13
2016-10-31 $2.33B $1.60B 1.46
2016-07-31 $2.49B $1.56B 1.59
2016-04-30 $2.63B $1.48B 1.78
2016-01-31 $2.99B $1.59B 1.88
2015-10-31 $2.75B $1.31B 2.10
2015-07-31 $2.90B $1.31B 2.21
2015-04-30 $2.34B $1.27B 1.84
2015-01-31 $2.67B $1.40B 1.91
2014-10-31 $2.46B $1.19B 2.06
2014-07-31 $2.45B $1.16B 2.12
2014-04-30 $2.59B $1.12B 2.32
2014-01-31 $2.84B $1.07B 2.65
2013-10-31 $2.52B $0.95B 2.66
2013-07-31 $2.44B $0.96B 2.55
2013-04-30 $2.51B $0.98B 2.56
2013-01-31 $2.55B $1.04B 2.45
2012-10-31 $1.73B $0.99B 1.75
2012-07-31 $1.90B $0.90B 2.11
2012-04-30 $1.91B $0.88B 2.18
2012-01-31 $1.90B $0.95B 1.99
2011-10-31 $1.70B $0.81B 2.09
2011-07-31 $1.78B $0.83B 2.15
2011-04-30 $1.73B $0.82B 2.11
2011-01-31 $1.71B $0.87B 1.97
2010-10-31 $1.47B $0.74B 2.00
2010-07-31 $1.42B $0.72B 1.96
2010-04-30 $1.39B $0.71B 1.96
2010-01-31 $1.38B $0.70B 1.96
2009-10-31 $1.29B $0.63B 2.05
2009-07-31 $1.27B $0.66B 1.92
2009-04-30 $1.30B $0.68B 1.91
2009-01-31 $1.39B $0.80B 1.74
2008-10-31 $1.31B $0.66B 1.97
2008-07-31 $1.40B $0.87B 1.61
2008-04-30 $1.42B $0.74B 1.94
2008-01-31 $1.48B $0.73B 2.03
2007-10-31 $1.32B $0.61B 2.17
2007-07-31 $1.27B $0.60B 2.12
2007-04-30 $1.39B $0.59B 2.37
2007-01-31 $1.19B $0.57B 2.07
2006-10-31 $0.97B $0.51B 1.89
2006-07-31 $0.84B $0.50B 1.68
2006-04-30 $0.79B $0.52B 1.51
2006-01-31 $0.75B $0.49B 1.53
2005-10-31 $0.86B $0.46B 1.86
2005-07-31 $0.81B $0.44B 1.85
2005-04-30 $0.80B $0.44B 1.82
2005-01-31 $0.78B $0.47B 1.67
Sector Industry Market Cap Revenue
Computer and Technology Computer Software $51.783B $3.274B
Autodesk, Inc., is a leader in 3D design, engineering and entertainment software. Since its introduction of AutoCAD software in 1982, Autodesk continues to develop the broadest portfolio of 3D software for global markets. Customers across the manufacturing, architecture, building, construction, and media and entertainment industries-including the last 19 Academy Award winners for Best Visual Effects-use Autodesk software to design, visualize, and simulate their ideas before they're ever built or created. From blockbuster visual effects and buildings that create their own energy, to electric cars and the batteries that power them, the work of our 3D software customers is everywhere you look. Through their apps for iPhone, iPad, iPod, and Android, they're also making design technology accessible to professional designers and amateur designers, homeowners, students, and casual creators - anyone who wants to create and share their ideas with the world.
Stock Name Country Market Cap PE Ratio
Microsoft (MSFT) United States $1000.000B 36.95
Adobe (ADBE) United States $215.643B 58.54
SAP SE (SAP) Germany $192.373B 34.88
Salesforce, Inc (CRM) United States $181.146B 248.21
Oracle (ORCL) United States $169.483B 15.78
Intuit (INTU) United States $80.690B 64.33
VMware (VMW) United States $59.635B 30.80
Dassault Systemes SA (DASTY) France $46.464B 51.31
Cadence Design Systems (CDNS) United States $30.258B 29.90
Synopsys (SNPS) United States $29.925B 64.75
ANSYS (ANSS) United States $26.798B 63.88
Citrix Systems (CTXS) United States $17.435B 29.34
SS&C Technologies Holdings (SSNC) United States $15.705B 15.80
Open Text (OTEX) Canada $12.455B 29.56
PTC (PTC) United States $10.095B 47.25
Pegasystems (PEGA) United States $9.220B 0.00
Trend Micro (TMICY) Japan $8.559B 30.91
Nuance Communications (NUAN) United States $8.322B 49.13
Aspen Technology (AZPN) United States $6.952B 29.98
Manhattan Associates (MANH) United States $6.005B 74.43
Konami (KNMCY) Japan $4.962B 27.59
Descartes Systems Group (DSGX) Canada $4.884B 123.02
ACI Worldwide (ACIW) United States $3.550B 37.65
Blackbaud (BLKB) United States $3.316B 49.54
Verint Systems (VRNT) United States $2.865B 19.39
Cornerstone OnDemand (CSOD) United States $2.315B 42.21
Bottomline Technologies (EPAY) United States $2.256B 155.64
CommVault Systems (CVLT) United States $2.035B 79.76
Progress Software (PRGS) United States $1.652B 14.52
PROS Holdings (PRO) United States $1.563B 0.00
Sapiens (SPNS) Israel $1.542B 36.12
MicroStrategy (MSTR) United States $1.195B 48.58
Simulations Plus (SLP) United States $1.173B 121.91
Rosetta Stone (RST) United States $0.672B 0.00
Magic Software Enterprises (MGIC) Israel $0.634B 20.56
QAD (QADB) United States $0.572B 2800.00
American Software (AMSWA) United States $0.557B 66.00
Avid Technology (AVID) United States $0.393B 31.93
Canaan (CAN) China $0.373B 0.00
OptimizeRx (OPRX) United States $0.259B 0.00
Icad Inc (ICAD) United States $0.238B 0.00
Smith Micro Software (SMSI) United States $0.157B 13.03
ServiceSource (SREV) United States $0.155B 0.00
Park City (PCYG) United States $0.103B 105.60
Neonode (NEON) Sweden $0.082B 0.00
NetSol Technologies (NTWK) United States $0.039B 11.89
CounterPath (CPAH) Canada $0.025B 0.00
GSE Systems (GVP) United States $0.020B 19.41
BSQUARE (BSQR) United States $0.020B 0.00